[[{"header":{"parameterUnit":"m.s-1","parameterCategory":1,"la1":30.2991,"la2":30.254,"lo1":-89.0895,"lo2":-89.0444,"dy":0.0017,"dx":0.0017,"nx":28,"ny":28,"refTime":"2023-09-11T09:00:00:Z","depth":0,"parameterNumber":2,"parameterNumberName":"U-component_of_WINDS"},"data":[0,0,0,0,0,0,0,0,0,0,0,0,0,0,0,0,0,0,0,0,0,0,0,0,0,0,0,0,0,0,0,0,0,0,0,0,0,0,0,0,0,0,0,0,0,0,0,0,0,0,0,0,0,0,0,0,0,0,-1.4243,-1.4242,0,-1.4177,-1.4176,-1.4175,-1.4117,-1.4116,-1.4116,-1.4115,-1.4046,-1.4045,-1.4044,0,0,0,0,0,0,0,0,0,0,0,0,0,-1.4321,-1.432,-1.4243,-1.4242,-1.4242,-1.4177,-1.4176,-1.4175,-1.4117,-1.4116,-1.4116,-1.4115,-1.4046,-1.4045,-1.4043,0,0,0,0,0,0,0,0,0,0,0,0,0,-1.4274,-1.432,-1.4243,-1.4205,-1.4201,-1.4177,-1.4176,-1.4175,-1.4117,-1.4116,-1.4115,-1.4114,-1.4047,-1.4045,-1.4043,-1.4052,0,0,-1.4038,-1.4037,0,0,0,0,0,0,0,0,-1.4277,-1.4271,-1.4211,-1.4208,-1.4203,-1.4154,-1.4178,-1.4133,-1.4118,-1.4149,-1.4115,-1.4114,-1.4083,-1.4078,-1.4067,-1.4048,-1.4045,-1.4037,-1.4036,-1.4036,-1.4035,0,0,0,0,0,0,0,-1.428,-1.4274,-1.4217,-1.4211,-1.4205,-1.4191,-1.4184,-1.4169,-1.4122,-1.4146,-1.4142,-1.4135,-1.408,-1.4069,-1.4065,-1.4044,-1.4038,-1.4036,-1.4035,-1.4034,-1.4031,-1.4032,0,0,0,0,0,0,-1.4289,-1.4277,-1.4219,-1.4215,-1.4238,-1.4191,-1.4182,-1.4171,-1.4122,-1.4114,-1.4136,-1.4132,-1.4073,-1.4068,-1.4063,-1.407,-1.4036,-1.4034,-1.4033,-1.403,-1.4031,-1.4032,0,0,0,0,0,0,-1.4291,-1.4285,-1.4222,-1.4245,-1.4236,-1.419,-1.4178,-1.417,-1.4159,-1.4114,-1.4106,-1.4133,-1.4072,-1.4065,-1.4055,-1.4067,-1.4033,-1.4031,-1.4029,-1.403,-1.4032,-1.4086,0,0,0,0,0,0,-1.4294,-1.4286,-1.4288,-1.4245,-1.4235,-1.4215,-1.4179,-1.4169,-1.4156,-1.4151,-1.411,-1.4102,-1.4071,-1.4058,-1.4054,-1.4064,-1.403,-1.4027,-1.4029,-1.4031,-1.4082,-1.4089,-1.4094,0,0,0,0,0,-1.4297,-1.4305,-1.4289,-1.4282,-1.4237,-1.4216,-1.421,-1.4174,-1.4157,-1.416,-1.4131,-1.4103,-1.4067,-1.4058,-1.4052,-1.4062,-1.4026,-1.4029,-1.4031,-1.408,-1.4087,-1.4094,0,0,0,0,0,0,-1.435,-1.4299,-1.428,-1.4275,-1.425,-1.4206,-1.4208,-1.4183,-1.4163,-1.4159,-1.4115,-1.4106,-1.4101,-1.408,-1.4071,-1.4069,-1.4043,-1.4044,-1.4082,-1.4089,-1.4095,-1.41,-1.4028,0,0,0,0,0,-1.4362,-1.4349,-1.4305,-1.4305,-1.4294,-1.4253,-1.4243,-1.4218,-1.419,-1.418,-1.415,-1.4125,-1.4108,-1.4097,-1.4079,-1.4079,-1.407,-1.4084,-1.409,-1.4094,-1.4096,-1.4096,-1.4102,-1.404,-1.404,-1.404,0,0,-1.4385,-1.4355,-1.435,-1.4315,-1.4293,-1.4282,-1.4245,-1.4234,-1.4225,-1.4178,-1.4167,-1.4145,-1.4113,-1.4109,-1.4106,-1.4092,-1.4111,-1.4097,-1.4102,-1.41,-1.4099,-1.4105,-1.411,-1.4041,-1.4041,-1.4041,0,0,-1.4421,-1.4397,-1.4395,-1.4374,-1.4342,-1.4315,-1.4315,-1.4275,-1.4259,-1.4247,-1.4212,-1.4201,-1.4172,-1.4152,-1.4138,-1.4169,-1.4143,-1.4164,-1.4194,-1.4195,-1.42,-1.4204,-1.4216,-1.4221,-1.4166,-1.4166,-1.4166,0,-1.4454,-1.4435,-1.4397,-1.4389,-1.4375,-1.4333,-1.4331,-1.4313,-1.4276,-1.4267,-1.4252,-1.4217,-1.4193,-1.4184,-1.4192,-1.4181,-1.418,-1.4168,-1.4202,-1.4206,-1.4209,-1.422,-1.4225,-1.4169,-1.4169,-1.4168,-1.4168,0,-1.4477,-1.4465,-1.4467,-1.4434,-1.442,-1.4415,-1.4377,-1.4368,-1.4345,-1.432,-1.431,-1.428,-1.4255,-1.4251,-1.4228,-1.424,-1.4232,-1.421,-1.4184,-1.4219,-1.4228,-1.4232,-1.4173,-1.4172,-1.4171,-1.417,0,0,-1.4544,-1.4491,-1.4493,-1.4478,-1.444,-1.443,-1.4423,-1.44,-1.4394,-1.437,-1.4364,-1.4342,-1.4322,-1.4306,-1.428,-1.4281,-1.4309,-1.4259,-1.4258,-1.427,-1.4321,-1.4338,-1.4343,-1.4292,-1.4292,-1.4293,-1.4324,0,-1.4575,-1.4561,-1.4528,-1.4524,-1.4513,-1.4473,-1.4468,-1.4445,-1.4422,-1.4409,-1.4384,-1.4369,-1.4343,-1.4334,-1.4333,-1.4306,-1.4319,-1.4303,-1.4286,-1.4286,-1.4295,-1.4348,-1.4365,-1.4397,-1.4328,-1.4328,-1.4329,0,-1.4608,-1.4588,-1.4584,-1.4548,-1.4542,-1.4537,-1.4514,-1.4502,-1.4476,-1.4459,-1.4443,-1.4414,-1.4406,-1.4382,-1.4371,-1.4361,-1.4352,-1.4338,-1.4338,-1.4335,-1.4309,-1.4347,-1.4405,-1.441,-1.4334,-1.4333,-1.4333,0,-1.4658,-1.463,-1.4624,-1.4612,-1.457,-1.4568,-1.4551,-1.4523,-1.4512,-1.4492,-1.4484,-1.4463,-1.4452,-1.4437,-1.4404,-1.4389,-1.4397,-1.437,-1.4383,-1.4384,-1.4386,-1.4387,-1.4445,-1.4381,-1.438,-1.438,-1.438,0,-1.4696,-1.4695,-1.4646,-1.4643,-1.4641,-1.4604,-1.4603,-1.4581,-1.4557,-1.4549,-1.4514,-1.4508,-1.4465,-1.4453,-1.4428,-1.4423,-1.4418,-1.4405,-1.4398,-1.4408,-1.441,-1.4401,-1.4399,-1.4382,-1.4381,-1.4381,-1.4381,0,-1.4752,-1.4719,-1.471,-1.4671,-1.4662,-1.4662,-1.4629,-1.4625,-1.46,-1.4591,-1.4587,-1.4548,-1.4533,-1.45,-1.4475,-1.4458,-1.446,-1.4447,-1.4469,-1.4465,-1.4481,-1.448,-1.4535,-1.4541,-1.4474,-1.4474,-1.4475,0,-1.4778,-1.4776,-1.4738,-1.473,-1.4714,-1.4702,-1.4691,-1.4654,-1.4644,-1.4614,-1.4614,-1.4596,-1.458,-1.4558,-1.4528,-1.451,-1.4497,-1.4518,-1.4494,-1.4504,-1.4498,-1.4499,-1.4499,-1.4523,-1.4524,-1.4525,-1.4525,0,-1.4828,-1.4813,-1.4797,-1.4778,-1.4765,-1.4748,-1.4728,-1.4724,-1.4683,-1.4673,-1.4658,-1.4646,-1.4622,-1.4605,-1.4582,-1.4564,-1.4538,-1.4533,-1.4535,-1.4546,-1.4559,-1.4553,-1.4484,-1.4532,-1.4531,-1.4531,-1.453,-1.453,-1.487,-1.4868,-1.4841,-1.4826,-1.4807,-1.479,-1.4785,-1.476,-1.4747,-1.4724,-1.4704,-1.4691,-1.4665,-1.4632,-1.4616,-1.4606,-1.4593,-1.4596,-1.4597,-1.4598,-1.4603,-1.4561,-1.4602,-1.4601,-1.4601,-1.4601,-1.4601,0,-1.4919,-1.49,-1.4887,-1.4861,-1.485,-1.4827,-1.4805,-1.4797,-1.4786,-1.4764,-1.475,-1.4733,-1.4717,-1.4687,-1.4668,-1.4666,-1.4653,-1.4662,-1.4662,-1.4658,-1.4615,-1.4615,-1.4672,-1.4672,-1.4672,-1.4672,-1.4672,-1.4672,-1.4944,-1.4938,-1.492,-1.4906,-1.4887,-1.4874,-1.4863,-1.4848,-1.4831,-1.4813,-1.48,-1.4781,-1.4756,-1.4736,-1.4721,-1.4712,-1.4707,-1.472,-1.4708,-1.4668,-1.4661,-1.4655,-1.4655,-1.4719,-1.4719,-1.4752,-1.4752,-1.4752]},{"header":{"parameterUnit":"m.s-1","parameterCategory":1,"la1":30.2991,"la2":30.254,"lo1":-89.0895,"lo2":-89.0444,"dy":0.0017,"dx":0.0017,"nx":28,"ny":28,"refTime":"2023-09-11T09:00:00:Z","depth":0,"parameterNumber":3,"parameterNumberName":"V-component_of_WINDS"},"data":[0,0,0,0,0,0,0,0,0,0,0,0,0,0,0,0,0,0,0,0,0,0,0,0,0,0,0,0,0,0,0,0,0,0,0,0,0,0,0,0,0,0,0,0,0,0,0,0,0,0,0,0,0,0,0,0,0,0,3.623,3.623,0,3.6208,3.6208,3.6207,3.6241,3.6242,3.6243,3.6244,3.6215,3.6213,3.6211,0,0,0,0,0,0,0,0,0,0,0,0,0,3.6297,3.6295,3.623,3.623,3.623,3.6208,3.6208,3.6207,3.6241,3.6242,3.6244,3.6245,3.6215,3.6213,3.6211,0,0,0,0,0,0,0,0,0,0,0,0,0,3.627,3.6295,3.6231,3.6244,3.6245,3.6208,3.6208,3.6207,3.624,3.6242,3.6244,3.6246,3.6216,3.6213,3.621,3.6157,0,0,3.6202,3.62,0,0,0,0,0,0,0,0,3.6272,3.6268,3.6242,3.6243,3.6244,3.6229,3.622,3.619,3.624,3.6242,3.6244,3.6246,3.6218,3.6215,3.6206,3.6156,3.6154,3.6201,3.62,3.6198,3.6198,0,0,0,0,0,0,0,3.6274,3.6269,3.6221,3.6242,3.6243,3.6249,3.6248,3.6215,3.622,3.6242,3.6244,3.6242,3.6218,3.6209,3.6206,3.6154,3.6201,3.6199,3.6197,3.6196,3.6059,3.6057,0,0,0,0,0,0,3.6275,3.627,3.6222,3.6221,3.6263,3.6247,3.6245,3.6232,3.622,3.622,3.624,3.6243,3.6213,3.6209,3.6205,3.6142,3.6198,3.6196,3.6194,3.6061,3.6058,3.6056,0,0,0,0,0,0,3.6276,3.627,3.6223,3.6246,3.6241,3.6244,3.6229,3.6231,3.6221,3.6219,3.6219,3.623,3.6214,3.6209,3.6169,3.6141,3.6194,3.6192,3.6063,3.606,3.6057,3.6015,0,0,0,0,0,0,3.6278,3.627,3.6251,3.6246,3.6239,3.6189,3.6227,3.6229,3.6217,3.6221,3.621,3.6209,3.6215,3.6173,3.6166,3.6138,3.619,3.6065,3.6062,3.6058,3.6019,3.6011,3.6005,0,0,0,0,0,3.628,3.6239,3.625,3.6244,3.6216,3.6188,3.6184,3.6193,3.6215,3.6195,3.6194,3.621,3.6146,3.6169,3.6161,3.6132,3.6067,3.6063,3.6058,3.6022,3.6013,3.6005,0,0,0,0,0,0,3.6238,3.6238,3.6251,3.6207,3.6197,3.6193,3.6168,3.6183,3.6165,3.6169,3.618,3.6177,3.6135,3.6129,3.6155,3.608,3.611,3.6104,3.6085,3.6076,3.6069,3.607,3.6187,0,0,0,0,0,3.6224,3.6203,3.6204,3.6165,3.616,3.6165,3.6153,3.6161,3.6151,3.6146,3.6142,3.6129,3.6107,3.6091,3.607,3.6019,3.6017,3.5995,3.5988,3.5982,3.5976,3.5949,3.594,3.6042,3.6042,3.6042,0,0,3.6194,3.6192,3.6177,3.6156,3.615,3.6126,3.6161,3.6134,3.6116,3.6141,3.6104,3.6101,3.6087,3.6042,3.6022,3.6036,3.5948,3.5977,3.5972,3.5969,3.5944,3.5934,3.5925,3.6039,3.6039,3.604,0,0,3.6128,3.6124,3.6092,3.6086,3.6077,3.6081,3.6073,3.6067,3.6066,3.603,3.6049,3.6027,3.5987,3.5977,3.5967,3.5899,3.5913,3.5891,3.5853,3.5826,3.5818,3.5811,3.5786,3.5777,3.5886,3.5886,3.5886,0,3.6091,3.6058,3.6073,3.6045,3.6035,3.606,3.6027,3.6019,3.6002,3.5994,3.6011,3.5963,3.5956,3.5909,3.5892,3.5883,3.5874,3.5892,3.5819,3.5812,3.5805,3.5782,3.5772,3.5883,3.5884,3.5884,3.5884,0,3.6014,3.5991,3.5965,3.5952,3.5939,3.5908,3.5916,3.5901,3.5911,3.5913,3.5875,3.5868,3.5846,3.5836,3.5844,3.579,3.5799,3.5818,3.5847,3.5793,3.5771,3.5762,3.588,3.5881,3.5881,3.5882,0,0,3.5918,3.5915,3.5905,3.59,3.5893,3.5874,3.5844,3.5826,3.5812,3.58,3.5775,3.5742,3.5759,3.5748,3.5755,3.5732,3.5678,3.5753,3.5753,3.5739,3.5618,3.5604,3.5593,3.5688,3.5687,3.5685,3.5619,0,3.5852,3.5804,3.5817,3.5767,3.5746,3.577,3.5744,3.5736,3.5737,3.5717,3.5718,3.5695,3.5719,3.5713,3.5691,3.5689,3.5654,3.5695,3.5663,3.5662,3.5665,3.5582,3.5566,3.5504,3.561,3.5609,3.5608,0,3.5768,3.5756,3.5705,3.5703,3.5694,3.5671,3.5655,3.5637,3.5628,3.563,3.5618,3.5631,3.56,3.5632,3.5589,3.5616,3.5604,3.5602,3.56,3.5596,3.5631,3.5575,3.5484,3.5475,3.5594,3.5595,3.5596,0,3.5704,3.5674,3.5641,3.5635,3.5631,3.5614,3.5611,3.5604,3.5593,3.5578,3.557,3.5552,3.5541,3.5526,3.5532,3.5555,3.5488,3.552,3.5488,3.5488,3.5472,3.5472,3.5377,3.5465,3.5465,3.5466,3.5466,0,3.5628,3.5596,3.5612,3.5591,3.5555,3.557,3.5534,3.5534,3.5528,3.5506,3.5525,3.5503,3.5514,3.5493,3.5498,3.5462,3.5457,3.5457,3.5458,3.5455,3.5455,3.5446,3.545,3.5463,3.5464,3.5464,3.5465,0,3.5549,3.5559,3.5523,3.5524,3.5523,3.5497,3.5496,3.5476,3.548,3.5452,3.5446,3.545,3.5427,3.5433,3.5406,3.541,3.5364,3.5371,3.5368,3.5369,3.5337,3.534,3.5232,3.5218,3.5316,3.5315,3.5314,0,3.55,3.5476,3.5475,3.5463,3.546,3.544,3.5429,3.5442,3.5429,3.5418,3.5399,3.5378,3.5362,3.5323,3.5323,3.5303,3.5309,3.5273,3.5306,3.5303,3.5308,3.5309,3.5306,3.5266,3.5264,3.5263,3.5263,0,3.5411,3.5418,3.5402,3.5389,3.5376,3.5365,3.5355,3.5344,3.5357,3.5341,3.5319,3.5307,3.5281,3.526,3.5242,3.5237,3.5251,3.5253,3.5244,3.524,3.5239,3.5239,3.5349,3.5255,3.5255,3.5256,3.5257,3.5257,3.5345,3.5326,3.5322,3.5304,3.53,3.5291,3.5272,3.5275,3.5257,3.5239,3.5248,3.5222,3.5214,3.5192,3.5185,3.5164,3.5177,3.5165,3.5162,3.5158,3.5154,3.5243,3.516,3.5161,3.5161,3.5161,3.5161,0,3.5257,3.5257,3.5241,3.5229,3.5214,3.5233,3.5224,3.521,3.5188,3.518,3.5165,3.5139,3.5119,3.5118,3.5098,3.5081,3.5088,3.5076,3.5077,3.5075,3.5143,3.5153,3.5071,3.5071,3.5071,3.5071,3.5071,3.5071,3.521,3.5178,3.5184,3.515,3.5149,3.5126,3.5119,3.5111,3.5105,3.5077,3.5061,3.5062,3.5056,3.5037,3.5018,3.5019,3.501,3.4996,3.4998,3.5061,3.507,3.5079,3.5088,3.4994,3.4994,3.4932,3.4931,3.4931]}]]